Overview Statistics Trail Chart Weather Telemetry Raw packets
 

This is the latest recevied weather packets stored in our database for station/object KI5NXU. If no packets are shown the sender has not sent any weather packets the latest 10 day(s).

<< 83 84 85 86 87 88 89 >>
Time Temp. Humidity Pressure Rain* Wind** Luminosity Snow
1787773185 33.33° C 53% 1015.5 hPa 0 mm - 240 W/m² -
1787772880 33.33° C 54% 1015.8 hPa 0 mm - 209 W/m² -
1787772582 33.33° C 53% 1015.9 hPa 0 mm - 229 W/m² -
1787772273 33.33° C 53% 1016 hPa 0 mm - 247 W/m² -
1787771972 32.78° C 55% 1016 hPa 0 mm - 208 W/m² -
1787771667 32.78° C 54% 1016.2 hPa 0 mm - 215 W/m² -
1787771361 32.78° C 55% 1016.1 hPa 0 mm - 234 W/m² -
1787771061 32.78° C 55% 1016.2 hPa 0 mm - 260 W/m² -
1787770755 32.78° C 55% 1016.2 hPa 0 mm - 282 W/m² -
1787770455 32.78° C 55% 1016.3 hPa 0 mm - 296 W/m² -
1787770155 32.78° C 54% 1016.4 hPa 0 mm - 311 W/m² -
1787769854 33.33° C 55% 1016.3 hPa 0 mm - 422 W/m² -
1787769553 33.89° C 52% 1016.3 hPa 0 mm - 237 W/m² -
1787769252 33.89° C 51% 1016.2 hPa 0 mm - 825 W/m² -
1787768952 33.33° C 53% 1016.4 hPa 0 mm - 470 W/m² -
1787768648 33.33° C 53% 1016.6 hPa 0 mm - 438 W/m² -
1787768344 33.89° C 54% 1016.9 hPa 0 mm - 759 W/m² -
1787768040 32.78° C 54% 1016.9 hPa 0 mm - 718 W/m² -
1787767739 32.22° C 56% 1016.7 hPa 0 mm - 731 W/m² -
1787767434 31.67° C 57% 1016.9 hPa 0 mm - 277 W/m² -
1787767133 31.67° C 57% 1017 hPa 0 mm - 555 W/m² -
1787766832 31.67° C 58% 1017 hPa 0 mm - 518 W/m² -
1787766526 31.11° C 59% 1017 hPa 0 mm - 517 W/m² -
1787766226 31.11° C 59% 1017.1 hPa 0 mm - 294 W/m² -
1787765921 30° C 60% 1017.1 hPa 0 mm - 662 W/m² -

* Rain latest hour (hover to see other rain measurements)
** Current wind speed in m/s (hover to see current wind gust speed)